Location: Caltech
(34.1382°N, 118.1253°W)
Time: 09:49:35
(UTC-07:00)

AO-27 - Visible Passes

Search period start: 06 May 2016 00:00
Search period end: 16 May 2016 00:00
Orbit: 785 x 799 km, 98.8° (Epoch: 05 May)

Date Brightness Start Highest point End Pass type
(mag) Time Alt. Az. Time Alt. Az. Time Alt. Az.
06 May 9.5 02:46:53 10° NE 02:50:53 22° E 02:51:39 21° ESE visible
06 May 8.4 04:25:41 10° N 04:30:24 36° WNW 04:32:25 26° WSW visible
07 May 10.2 02:20:36 10° E 02:21:38 11° E 02:22:22 10° E visible
07 May 7.6 03:56:22 10° N 04:01:32 72° WNW 04:03:07 45° SW visible
08 May 8.0 03:27:26 10° NNE 03:32:34 58° ESE 03:33:51 45° SSE visible
08 May 9.5 05:08:43 10° NNW 05:11:31 15° WNW 05:14:19 10° W visible
09 May 9.1 02:58:58 10° NE 03:03:28 29° E 03:04:34 27° ESE visible
09 May 8.7 04:38:28 10° NNW 04:42:50 28° WNW 04:45:20 19° WSW visible
10 May 9.9 02:31:24 10° ENE 02:34:16 15° E 02:35:17 14° ESE visible
10 May 7.9 04:08:58 10° N 04:14:00 54° WNW 04:16:03 33° SW visible
11 May 7.7 03:39:52 10° NNE 03:45:05 78° ESE 03:46:45 44° S visible
11 May 9.7 05:22:28 10° NW 05:23:51 11° WNW 05:25:15 10° WNW visible
12 May 8.7 03:11:11 10° NNE 03:16:02 39° E 03:17:28 33° SE visible
12 May 9.1 04:51:22 10° NNW 04:55:14 21° WNW 04:58:13 13° WSW visible
13 May 9.6 02:43:08 10° NE 02:46:54 20° E 02:48:09 18° ESE visible
13 May 8.2 04:21:38 10° N 04:26:28 40° WNW 04:28:56 25° WSW visible
14 May 7.6 03:52:22 10° N 03:57:35 80° WNW 03:59:38 38° SSW visible
15 May 8.2 03:23:31 10° NNE 03:28:36 52° E 03:30:20 36° SSE visible
15 May 9.4 05:04:27 10° NNW 05:07:36 16° WNW 05:10:46 10° WSW visible
